This demonstration page uses our WeatherBlox Daily Observations layout. Learn more.

Left ArrowRight Arrow

39.01783, -85.05884

Hourly Observations for October 26, 2020

Temp ( °F °C ) Dew Point ( °F °C ) Humidity (%) Winds ( mph kmh ) Pressure ( in mb ) Visibility ( mi km ) Precip ( " mm )
12:30 am 00:30 Cloudy 50 10 46 7.8 86 86 Calm 30.05 1018 10 16.0934 0 0
12:52 am 00:52 Cloudy 51 10.6 45 7.2 80 80 Calm 30.04 1017 10 16.0934 0 0
1:49 am 01:49 Cloudy 50 10 46 8 88 88 ENE 3 6 30.05 1018 10 16.0934 0 0
1:52 am 01:52 Cloudy 50 10 46 7.8 86 86 Calm 30.04 1017 10 16.0934 0 0
2:52 am 02:52 Cloudy with Drizzle 50 10 46 7.8 86 86 Calm 30.05 1018 6 9.65604 0.001 0.001
3:52 am 03:52 Cloudy 50 10 47 8.3 89 89 N 5 7 30.03 1017 7 11.26538 0.01 0.254
3:59 am 03:59 Cloudy with Mist and Fog 50 10 47 8.3 89 89 NNW 3 6 30.05 1018 6 9.65604 0 0
4:52 am 04:52 Cloudy 50 10 47 8.3 89 89 Calm 30.05 1018 8 12.87472 0 0
5:52 am 05:52 Cloudy with Mist and Fog 50 10 47 8.3 89 89 NW 5 7 30.06 1018 6 9.65604 0 0
6:20 am 06:20 Cloudy with Drizzle 50 10 48 8.9 93 93 NNW 6 9 30.09 1019 2 3.21868 0.001 0.001
6:52 am 06:52 Cloudy with Drizzle 48 8.9 46 7.8 93 93 NNW 9 15 30.08 1019 2 3.21868 0.01 0.254
7:52 am 07:52 Cloudy with Drizzle 47 8.3 44 6.7 90 90 N 8 13 30.09 1019 3 4.82802 0.001 0.001
7:59 am 07:59 Cloudy with Drizzle 47 8.3 44 6.7 90 90 N 7 11 30.12 1020 3 4.82802 0.001 0.001
8:52 am 08:52 Cloudy with Drizzle 47 8.3 44 6.7 90 90 N 5 7 30.11 1020 3 4.82802 0.001 0.001
9:52 am 09:52 Cloudy with Mist and Fog 48 8.9 45 7.2 89 89 Calm 30.13 1020 3 4.82802 0.001 0.001
10:52 am 10:52 Cloudy with Mist and Fog 49 9.4 45 7.2 86 86 Calm 30.14 1021 3 4.82802 0 0
11:52 am 11:52 Cloudy with Mist and Fog 49 9.4 46 7.8 90 90 WNW 3 6 30.15 1021 3 4.82802 0 0
12:52 pm 12:52 Cloudy with Mist and Fog 50 10 46 7.8 86 86 NW 8 13 30.15 1021 3 4.82802 0 0
1:52 pm 13:52 Cloudy with Mist and Fog 50 10 46 7.8 86 86 NW 9 15 30.15 1021 3 4.82802 0.001 0.001
2:14 pm 14:14 Cloudy 49 9.4 45 7.2 86 86 NNW 12 19 30.17 1022 7 11.26538 0 0
2:52 pm 14:52 Cloudy 49 9.4 44 6.7 83 83 NNW 10 17 30.15 1021 9 14.48406 0.001 0.001
3:04 pm 15:04 Cloudy 49 9.4 44 6.7 83 83 NW 8 13 30.16 1021 10 16.0934 0 0
3:52 pm 15:52 Cloudy 49 9.4 44 6.7 83 83 N 7 11 30.15 1021 10 16.0934 0 0
4:42 pm 16:42 Cloudy 49 9.4 44 6.7 83 83 NNW 8 13 30.17 1022 10 16.0934 0 0
4:52 pm 16:52 Cloudy 49 9.4 43 6.1 80 80 NNW 7 11 30.15 1021 10 16.0934 0 0
5:52 pm 17:52 Cloudy 49 9.4 43 6.1 80 80 NW 7 11 30.2 1023 10 16.0934 0 0
6:52 pm 18:52 Cloudy 49 9.4 42 5.6 77 77 N 6 9 30.19 1022 10 16.0934 0 0
7:52 pm 19:52 Cloudy with Light Rain 49 9.4 42 5.6 77 77 NNW 6 9 30.23 1024 10 16.0934 0.001 0.001
8:44 pm 20:44 Cloudy 48 8.9 42 5.6 80 80 N 6 9 30.24 1024 10 16.0934 0.001 0.001
8:52 pm 20:52 Cloudy 48 8.9 42 5.6 80 80 N 6 9 30.23 1024 10 16.0934 0.001 0.001
9:52 pm 21:52 Cloudy 48 8.9 42 5.6 80 80 N 5 7 30.24 1024 10 16.0934 0 0
10:52 pm 22:52 Cloudy 48 8.9 41 5 77 77 NNW 6 9 30.26 1025 10 16.0934 0 0
11:52 pm 23:52 Cloudy with Light Rain 47 8.3 42 5.6 83 83 ENE 8 13 30.24 1024 7 11.26538 0.01 0.254

Powered by AerisWeather